P/2005 Y2 ( McNaught )

Japanese version
Home page
Updated on March 23, 2019

---------------------------------------------------------------------

* Profile

Discovery Date December 30, 2005
Magnitude 17.8 mag
Discoverer R. H. McNaught (Siding Spring)

* Orbital Elements

Epoch 2004 Dec. 21.0 TT = JDT 2453360.5
T 2004 Dec. 27.93152 TT                                 MPCW
q   3.3547934            (2000.0)            P               Q
n   0.06254453     Peri.  194.57344     +0.31488110     +0.89085340
a   6.2855479      Node    94.62264     -0.83461959     +0.42417454
e   0.4662687      Incl.   19.17950     -0.45195137     -0.16265353
P  15.76
From 146 observations 2003 May 30-2019 Mar. 18, mean residual 0".6.

* Finding Charts

* Magnitudes Graph

        m1 = 10.0 + 5 log d + 7.5 log r(t - 1000)

---------------------------------------------------------------------

The orbital elements are published on M.P.E.C. 2019-F27.
The charts are made with StellaNavigator Ver.2.0 for Windows (AstroArts / ASCII).
The magnitudes graphs are made with Comet for Windows.

---------------------------------------------------------------------

Copyright(C) Seiichi Yoshida (comet@aerith.net). All rights reserved.